M I D A S
Marine Information and Data Acquisition System
Tripno 1370 of the Zeeleeuw from 2007-12-18 07:33:26 to 2007-12-18 16:04:42
Back to CruiseResearch ActivitiesStationsMapUnderway DataData graphs

EquipmentUnitsComment
TimeDGPSUTC
LatitudeDGPSDM.mWGS84
LongitudeDGPSDM.mWGS84
TemperatureSBE03/SBE38deg celciusITS90
ConductivitySBE21S/mITS90
SalinitySBE21 Practical Salinity Units
ChlorophylAChelsea fluorimeterg/lCalibrated in Aceton
Missing or incorrect values are displayed as -999
Sea surface data collected by the RV Zeeleeuw from 2007-12-18 07:35:43 to 2007-12-18 16:13:49
                                                                                    Next 1000 lines
Time Latitude Longitude Temperature Conductivity Salinity ChlorophylA
2007-12-18 07:35:53 51°13.597 2°56.093 -999 -999 -999 -999
2007-12-18 07:35:58 51°13.598 2°56.091 -999 -999 -999 -999
2007-12-18 07:36:03 51°13.598 2°56.088 -999 -999 -999 -999
2007-12-18 07:36:07 51°13.599 2°56.086 -999 -999 -999 -999
2007-12-18 07:36:12 51°13.599 2°56.082 -999 -999 -999 -999
2007-12-18 07:36:17 51°13.6 2°56.078 -999 -999 -999 -999
2007-12-18 07:36:23 51°13.602 2°56.073 -999 -999 -999 -999
2007-12-18 07:36:28 51°13.603 2°56.067 -999 -999 -999 -999
2007-12-18 07:36:33 51°13.605 2°56.062 -999 -999 -999 -999
2007-12-18 07:36:38 51°13.606 2°56.056 -999 -999 -999 -999
2007-12-18 07:36:43 51°13.608 2°56.049 -999 -999 -999 -999
2007-12-18 07:36:48 51°13.61 2°56.041 -999 -999 -999 -999
2007-12-18 07:36:53 51°13.612 2°56.033 -999 -999 -999 -999
2007-12-18 07:36:58 51°13.615 2°56.025 -999 -999 -999 -999
2007-12-18 07:37:03 51°13.617 2°56.016 -999 -999 -999 -999
2007-12-18 07:37:08 51°13.62 2°56.007 -999 -999 -999 -999
2007-12-18 07:37:13 51°13.622 2°55.997 -999 -999 -999 -999
2007-12-18 07:37:18 51°13.625 2°55.988 -999 -999 -999 -999
2007-12-18 07:37:23 51°13.628 2°55.978 -999 -999 -999 -999
2007-12-18 07:37:28 51°13.631 2°55.968 -999 -999 -999 -999
2007-12-18 07:37:33 51°13.634 2°55.958 -999 -999 -999 -999
2007-12-18 07:37:38 51°13.637 2°55.948 -999 -999 -999 -999
2007-12-18 07:37:43 51°13.64 2°55.938 -999 -999 -999 -999
2007-12-18 07:37:48 51°13.644 2°55.927 -999 -999 -999 -999
2007-12-18 07:37:53 51°13.647 2°55.917 -999 -999 -999 -999
2007-12-18 07:37:58 51°13.65 2°55.906 -999 -999 -999 -999
2007-12-18 07:38:03 51°13.654 2°55.896 -999 -999 -999 -999
2007-12-18 07:38:08 51°13.657 2°55.886 -999 -999 -999 -999
2007-12-18 07:38:13 51°13.66 2°55.876 -999 -999 -999 -999
2007-12-18 07:38:18 51°13.663 2°55.866 -999 -999 -999 -999
2007-12-18 07:38:23 51°13.665 2°55.857 -999 -999 -999 -999
2007-12-18 07:38:28 51°13.668 2°55.848 -999 -999 -999 -999
2007-12-18 07:38:33 51°13.67 2°55.839 -999 -999 -999 -999
2007-12-18 07:38:38 51°13.673 2°55.831 -999 -999 -999 -999
2007-12-18 07:38:43 51°13.675 2°55.822 -999 -999 -999 -999
2007-12-18 07:38:48 51°13.677 2°55.814 -999 -999 -999 -999
2007-12-18 07:38:53 51°13.678 2°55.806 -999 -999 -999 -999
2007-12-18 07:38:58 51°13.679 2°55.798 -999 -999 -999 -999
2007-12-18 07:39:03 51°13.68 2°55.79 -999 -999 -999 -999
2007-12-18 07:39:08 51°13.681 2°55.783 -999 -999 -999 -999
2007-12-18 07:39:13 51°13.682 2°55.776 -999 -999 -999 -999
2007-12-18 07:39:18 51°13.683 2°55.769 -999 -999 -999 -999
2007-12-18 07:39:23 51°13.683 2°55.763 -999 -999 -999 -999
2007-12-18 07:39:27 51°13.683 2°55.758 -999 -999 -999 -999
2007-12-18 07:39:32 51°13.684 2°55.752 -999 -999 -999 -999
2007-12-18 07:39:37 51°13.684 2°55.748 -999 -999 -999 -999
2007-12-18 07:39:42 51°13.685 2°55.745 -999 -999 -999 -999
2007-12-18 07:39:47 51°13.685 2°55.743 -999 -999 -999 -999
2007-12-18 07:39:52 51°13.685 2°55.741 -999 -999 -999 -999
2007-12-18 07:39:56 51°13.686 2°55.741 -999 -999 -999 -999
2007-12-18 07:40:01 51°13.686 2°55.74 -999 -999 -999 -999
2007-12-18 07:40:07 51°13.687 2°55.74 -999 -999 -999 -999
2007-12-18 07:40:11 51°13.687 2°55.741 -999 -999 -999 -999
2007-12-18 07:40:16 51°13.688 2°55.741 -999 -999 -999 -999
2007-12-18 07:40:21 51°13.689 2°55.742 -999 -999 -999 -999
2007-12-18 07:40:26 51°13.69 2°55.744 -999 -999 -999 -999
2007-12-18 07:40:31 51°13.692 2°55.747 -999 -999 -999 -999
2007-12-18 07:40:35 51°13.693 2°55.749 -999 -999 -999 -999
2007-12-18 07:40:40 51°13.695 2°55.751 -999 -999 -999 -999
2007-12-18 07:40:45 51°13.697 2°55.754 -999 -999 -999 -999
2007-12-18 07:40:50 51°13.699 2°55.756 -999 -999 -999 -999
2007-12-18 07:40:55 51°13.7 2°55.757 -999 -999 -999 -999
2007-12-18 07:40:59 51°13.701 2°55.758 -999 -999 -999 -999
2007-12-18 07:41:04 51°13.701 2°55.758 -999 -999 -999 -999
2007-12-18 07:41:10 51°13.701 2°55.758 -999 -999 -999 -999
2007-12-18 07:41:15 51°13.7 2°55.757 -999 -999 -999 -999
2007-12-18 07:41:20 51°13.698 2°55.755 -999 -999 -999 -999
2007-12-18 07:41:25 51°13.696 2°55.754 -999 -999 -999 -999
2007-12-18 07:41:30 51°13.695 2°55.752 -999 -999 -999 -999
2007-12-18 07:41:36 51°13.693 2°55.75 -999 -999 -999 -999
2007-12-18 07:41:42 51°13.691 2°55.748 -999 -999 -999 -999
2007-12-18 07:41:47 51°13.69 2°55.747 -999 -999 -999 -999
2007-12-18 07:41:53 51°13.69 2°55.747 -999 -999 -999 -999
2007-12-18 07:41:58 51°13.691 2°55.747 -999 -999 -999 -999
2007-12-18 07:42:03 51°13.692 2°55.747 -999 -999 -999 -999
2007-12-18 07:42:07 51°13.694 2°55.748 -999 -999 -999 -999
2007-12-18 07:42:13 51°13.698 2°55.748 -999 -999 -999 -999
2007-12-18 07:42:18 51°13.702 2°55.747 -999 -999 -999 -999
2007-12-18 07:42:23 51°13.707 2°55.746 -999 -999 -999 -999
2007-12-18 07:42:28 51°13.712 2°55.743 -999 -999 -999 -999
2007-12-18 07:42:32 51°13.716 2°55.74 -999 -999 -999 -999
2007-12-18 07:42:38 51°13.723 2°55.735 -999 -999 -999 -999
2007-12-18 07:42:42 51°13.728 2°55.731 -999 -999 -999 -999
2007-12-18 07:42:47 51°13.734 2°55.726 -999 -999 -999 -999
2007-12-18 07:42:52 51°13.74 2°55.721 -999 -999 -999 -999
2007-12-18 07:42:57 51°13.746 2°55.716 -999 -999 -999 -999
2007-12-18 07:43:02 51°13.753 2°55.71 -999 -999 -999 -999
2007-12-18 07:43:07 51°13.76 2°55.704 -999 -999 -999 -999
2007-12-18 07:43:11 51°13.765 2°55.699 -999 -999 -999 -999
2007-12-18 07:43:16 51°13.772 2°55.692 -999 -999 -999 -999
2007-12-18 07:43:21 51°13.778 2°55.686 -999 -999 -999 -999
2007-12-18 07:43:26 51°13.785 2°55.679 -999 -999 -999 -999
2007-12-18 07:43:31 51°13.792 2°55.672 -999 -999 -999 -999
2007-12-18 07:43:36 51°13.799 2°55.665 -999 -999 -999 -999
2007-12-18 07:43:40 51°13.805 2°55.66 -999 -999 -999 -999
2007-12-18 07:43:45 51°13.813 2°55.653 -999 -999 -999 -999
2007-12-18 07:43:50 51°13.82 2°55.647 -999 -999 -999 -999
2007-12-18 07:43:55 51°13.828 2°55.641 -999 -999 -999 -999
2007-12-18 07:44:00 51°13.836 2°55.635 -999 -999 -999 -999
2007-12-18 07:44:05 51°13.844 2°55.629 -999 -999 -999 -999
2007-12-18 07:44:10 51°13.852 2°55.623 -999 -999 -999 -999
2007-12-18 07:44:15 51°13.86 2°55.617 -999 -999 -999 -999
2007-12-18 07:44:19 51°13.867 2°55.613 -999 -999 -999 -999
2007-12-18 07:44:24 51°13.875 2°55.607 -999 -999 -999 -999
2007-12-18 07:44:29 51°13.884 2°55.602 -999 -999 -999 -999
2007-12-18 07:44:34 51°13.892 2°55.596 -999 -999 -999 -999
2007-12-18 07:44:39 51°13.901 2°55.591 -999 -999 -999 -999
2007-12-18 07:44:44 51°13.909 2°55.585 -999 -999 -999 -999
2007-12-18 07:44:49 51°13.918 2°55.58 -999 -999 -999 -999
2007-12-18 07:44:54 51°13.926 2°55.574 -999 -999 -999 -999
2007-12-18 07:44:59 51°13.935 2°55.568 -999 -999 -999 -999
2007-12-18 07:45:04 51°13.943 2°55.563 -999 -999 -999 -999
2007-12-18 07:45:09 51°13.952 2°55.556 -999 -999 -999 -999
2007-12-18 07:45:14 51°13.961 2°55.55 -999 -999 -999 -999
2007-12-18 07:45:19 51°13.97 2°55.543 -999 -999 -999 -999
2007-12-18 07:45:24 51°13.98 2°55.536 -999 -999 -999 -999
2007-12-18 07:45:29 51°13.989 2°55.529 -999 -999 -999 -999
2007-12-18 07:45:34 51°13.998 2°55.522 -999 -999 -999 -999
2007-12-18 07:45:39 51°14.008 2°55.515 -999 -999 -999 -999
2007-12-18 07:45:44 51°14.017 2°55.508 -999 -999 -999 -999
2007-12-18 07:45:49 51°14.027 2°55.501 -999 -999 -999 -999
2007-12-18 07:45:55 51°14.039 2°55.493 -999 -999 -999 -999
2007-12-18 07:46:00 51°14.049 2°55.486 -999 -999 -999 -999
2007-12-18 07:46:05 51°14.059 2°55.479 -999 -999 -999 -999
2007-12-18 07:46:10 51°14.069 2°55.472 -999 -999 -999 -999
2007-12-18 07:46:16 51°14.081 2°55.463 -999 -999 -999 -999
2007-12-18 07:46:22 51°14.093 2°55.454 -999 -999 -999 -999
2007-12-18 07:46:27 51°14.103 2°55.446 -999 -999 -999 -999
2007-12-18 07:46:32 51°14.113 2°55.439 -999 -999 -999 -999
2007-12-18 07:46:38 51°14.125 2°55.43 -999 -999 -999 -999
2007-12-18 07:46:43 51°14.135 2°55.422 -999 -999 -999 -999
2007-12-18 07:46:47 51°14.143 2°55.416 -999 -999 -999 -999
2007-12-18 07:46:53 51°14.155 2°55.405 -999 -999 -999 -999
2007-12-18 07:46:58 51°14.165 2°55.396 -999 -999 -999 -999
2007-12-18 07:47:03 51°14.175 2°55.386 -999 -999 -999 -999
2007-12-18 07:47:08 51°14.185 2°55.376 -999 -999 -999 -999
2007-12-18 07:47:13 51°14.195 2°55.365 -999 -999 -999 -999
2007-12-18 07:47:18 51°14.205 2°55.353 -999 -999 -999 -999
2007-12-18 07:47:23 51°14.215 2°55.34 -999 -999 -999 -999
2007-12-18 07:47:28 51°14.225 2°55.327 -999 -999 -999 -999
2007-12-18 07:47:33 51°14.235 2°55.313 -999 -999 -999 -999
2007-12-18 07:47:38 51°14.245 2°55.299 -999 -999 -999 -999
2007-12-18 07:47:43 51°14.254 2°55.283 -999 -999 -999 -999
2007-12-18 07:47:47 51°14.262 2°55.269 -999 -999 -999 -999
2007-12-18 07:47:52 51°14.272 2°55.252 -999 -999 -999 -999
2007-12-18 07:47:57 51°14.281 2°55.233 -999 -999 -999 -999
2007-12-18 07:48:02 51°14.29 2°55.215 -999 -999 -999 -999
2007-12-18 07:48:07 51°14.299 2°55.195 -999 -999 -999 -999
2007-12-18 07:48:12 51°14.308 2°55.175 -999 -999 -999 -999
2007-12-18 07:48:17 51°14.317 2°55.154 -999 -999 -999 -999
2007-12-18 07:48:22 51°14.325 2°55.133 -999 -999 -999 -999
2007-12-18 07:48:27 51°14.334 2°55.111 -999 -999 -999 -999
2007-12-18 07:48:31 51°14.34 2°55.093 -999 -999 -999 -999
2007-12-18 07:48:36 51°14.348 2°55.07 -999 -999 -999 -999
2007-12-18 07:48:41 51°14.356 2°55.047 -999 -999 -999 -999
2007-12-18 07:48:46 51°14.363 2°55.024 -999 -999 -999 -999
2007-12-18 07:48:51 51°14.371 2°55 -999 -999 -999 -999
2007-12-18 07:48:55 51°14.377 2°54.981 -999 -999 -999 -999
2007-12-18 07:49:00 51°14.385 2°54.959 -999 -999 -999 -999
2007-12-18 07:49:05 51°14.395 2°54.937 -999 -999 -999 -999
2007-12-18 07:49:10 51°14.405 2°54.916 -999 -999 -999 -999
2007-12-18 07:49:15 51°14.416 2°54.895 -999 -999 -999 -999
2007-12-18 07:49:19 51°14.425 2°54.88 -999 -999 -999 -999
2007-12-18 07:49:24 51°14.438 2°54.861 -999 -999 -999 -999
2007-12-18 07:49:29 51°14.451 2°54.844 -999 -999 -999 -999
2007-12-18 07:49:34 51°14.465 2°54.829 -999 -999 -999 -999
2007-12-18 07:49:39 51°14.48 2°54.816 -999 -999 -999 -999
2007-12-18 07:49:44 51°14.494 2°54.803 -999 -999 -999 -999
2007-12-18 07:49:49 51°14.51 2°54.792 -999 -999 -999 -999
2007-12-18 07:49:54 51°14.526 2°54.781 -999 -999 -999 -999
2007-12-18 07:49:59 51°14.541 2°54.771 -999 -999 -999 -999
2007-12-18 07:50:04 51°14.558 2°54.762 -999 -999 -999 -999
2007-12-18 07:50:09 51°14.575 2°54.755 -999 -999 -999 -999
2007-12-18 07:50:14 51°14.592 2°54.749 -999 -999 -999 -999
2007-12-18 07:50:19 51°14.609 2°54.744 -999 -999 -999 -999
2007-12-18 07:50:24 51°14.627 2°54.74 -999 -999 -999 -999
2007-12-18 07:50:29 51°14.645 2°54.737 -999 -999 -999 -999
2007-12-18 07:50:34 51°14.662 2°54.735 -999 -999 -999 -999
2007-12-18 07:50:39 51°14.68 2°54.733 -999 -999 -999 -999
2007-12-18 07:50:44 51°14.698 2°54.731 -999 -999 -999 -999
2007-12-18 07:50:49 51°14.716 2°54.73 -999 -999 -999 -999
2007-12-18 07:50:54 51°14.734 2°54.729 -999 -999 -999 -999
2007-12-18 07:50:59 51°14.752 2°54.728 -999 -999 -999 -999
2007-12-18 07:51:04 51°14.77 2°54.727 -999 -999 -999 -999
2007-12-18 07:51:09 51°14.788 2°54.726 -999 -999 -999 -999
2007-12-18 07:51:14 51°14.806 2°54.726 -999 -999 -999 -999
2007-12-18 07:51:19 51°14.824 2°54.725 -999 -999 -999 -999
2007-12-18 07:51:24 51°14.842 2°54.724 -999 -999 -999 -999
2007-12-18 07:51:28 51°14.857 2°54.723 -999 -999 -999 -999
2007-12-18 07:51:34 51°14.878 2°54.722 -999 -999 -999 -999
2007-12-18 07:51:39 51°14.896 2°54.72 -999 -999 -999 -999
2007-12-18 07:51:44 51°14.914 2°54.718 -999 -999 -999 -999
2007-12-18 07:51:49 51°14.932 2°54.716 -999 -999 -999 -999
2007-12-18 07:51:54 51°14.95 2°54.714 -999 -999 -999 -999
2007-12-18 07:51:59 51°14.968 2°54.712 -999 -999 -999 -999
2007-12-18 07:52:04 51°14.986 2°54.71 -999 -999 -999 -999
2007-12-18 07:52:09 51°15.003 2°54.708 -999 -999 -999 -999
2007-12-18 07:52:14 51°15.021 2°54.706 -999 -999 -999 -999
2007-12-18 07:52:19 51°15.039 2°54.704 -999 -999 -999 -999
2007-12-18 07:52:24 51°15.057 2°54.702 -999 -999 -999 -999
2007-12-18 07:52:29 51°15.075 2°54.7 -999 -999 -999 -999
2007-12-18 07:52:34 51°15.093 2°54.698 -999 -999 -999 -999
2007-12-18 07:52:39 51°15.111 2°54.696 -999 -999 -999 -999
2007-12-18 07:52:44 51°15.129 2°54.693 -999 -999 -999 -999
2007-12-18 07:52:49 51°15.147 2°54.691 -999 -999 -999 -999
2007-12-18 07:52:54 51°15.165 2°54.688 -999 -999 -999 -999
2007-12-18 07:52:59 51°15.183 2°54.685 -999 -999 -999 -999
2007-12-18 07:53:04 51°15.201 2°54.681 -999 -999 -999 -999
2007-12-18 07:53:09 51°15.219 2°54.678 -999 -999 -999 -999
2007-12-18 07:53:14 51°15.236 2°54.675 -999 -999 -999 -999
2007-12-18 07:53:20 51°15.258 2°54.671 -999 -999 -999 -999
2007-12-18 07:53:25 51°15.276 2°54.667 -999 -999 -999 -999
2007-12-18 07:53:29 51°15.29 2°54.665 -999 -999 -999 -999
2007-12-18 07:53:35 51°15.311 2°54.661 -999 -999 -999 -999
2007-12-18 07:53:39 51°15.326 2°54.659 -999 -999 -999 -999
2007-12-18 07:53:44 51°15.343 2°54.655 -999 -999 -999 -999
2007-12-18 07:53:49 51°15.361 2°54.652 -999 -999 -999 -999
2007-12-18 07:53:55 51°15.382 2°54.649 -999 -999 -999 -999
2007-12-18 07:53:59 51°15.396 2°54.646 -999 -999 -999 -999
2007-12-18 07:54:04 51°15.414 2°54.643 -999 -999 -999 -999
2007-12-18 07:54:09 51°15.432 2°54.639 -999 -999 -999 -999
2007-12-18 07:54:14 51°15.45 2°54.636 -999 -999 -999 -999
2007-12-18 07:54:19 51°15.468 2°54.633 -999 -999 -999 -999
2007-12-18 07:54:24 51°15.485 2°54.63 -999 -999 -999 -999
2007-12-18 07:54:29 51°15.503 2°54.627 -999 -999 -999 -999
2007-12-18 07:54:34 51°15.521 2°54.623 -999 -999 -999 -999
2007-12-18 07:54:39 51°15.538 2°54.62 -999 -999 -999 -999
2007-12-18 07:54:44 51°15.556 2°54.616 -999 -999 -999 -999
2007-12-18 07:54:49 51°15.574 2°54.613 -999 -999 -999 -999
2007-12-18 07:54:54 51°15.592 2°54.612 -999 -999 -999 -999
2007-12-18 07:54:59 51°15.61 2°54.61 -999 -999 -999 -999
2007-12-18 07:55:04 51°15.628 2°54.609 -999 -999 -999 -999
2007-12-18 07:55:09 51°15.646 2°54.608 -999 -999 -999 -999
2007-12-18 07:55:14 51°15.664 2°54.608 -999 -999 -999 -999
2007-12-18 07:55:19 51°15.682 2°54.608 -999 -999 -999 -999
2007-12-18 07:55:24 51°15.7 2°54.607 -999 -999 -999 -999
2007-12-18 07:55:29 51°15.718 2°54.608 -999 -999 -999 -999
2007-12-18 07:55:35 51°15.74 2°54.608 -999 -999 -999 -999
2007-12-18 07:55:39 51°15.755 2°54.608 -999 -999 -999 -999
2007-12-18 07:55:44 51°15.773 2°54.608 -999 -999 -999 -999
2007-12-18 07:55:49 51°15.791 2°54.609 -999 -999 -999 -999
2007-12-18 07:55:54 51°15.809 2°54.609 -999 -999 -999 -999
2007-12-18 07:55:59 51°15.827 2°54.61 -999 -999 -999 -999
2007-12-18 07:56:04 51°15.846 2°54.611 -999 -999 -999 -999
2007-12-18 07:56:09 51°15.863 2°54.612 -999 -999 -999 -999
2007-12-18 07:56:14 51°15.881 2°54.613 -999 -999 -999 -999
2007-12-18 07:56:19 51°15.899 2°54.614 -999 -999 -999 -999
2007-12-18 07:56:24 51°15.917 2°54.615 -999 -999 -999 -999
2007-12-18 07:56:29 51°15.935 2°54.616 -999 -999 -999 -999
2007-12-18 07:56:34 51°15.953 2°54.616 -999 -999 -999 -999
2007-12-18 07:56:39 51°15.971 2°54.616 -999 -999 -999 -999
2007-12-18 07:56:44 51°15.99 2°54.616 -999 -999 -999 -999
2007-12-18 07:56:49 51°16.008 2°54.615 -999 -999 -999 -999
2007-12-18 07:56:54 51°16.024 2°54.614 -999 -999 -999 -999
2007-12-18 07:56:59 51°16.04 2°54.612 -999 -999 -999 -999
2007-12-18 07:57:04 51°16.055 2°54.61 -999 -999 -999 -999
2007-12-18 07:57:09 51°16.068 2°54.608 -999 -999 -999 -999
2007-12-18 07:57:14 51°16.08 2°54.605 -999 -999 -999 -999
2007-12-18 07:57:19 51°16.092 2°54.601 -999 -999 -999 -999
2007-12-18 07:57:24 51°16.102 2°54.595 -999 -999 -999 -999
2007-12-18 07:57:29 51°16.11 2°54.589 -999 -999 -999 -999
2007-12-18 07:57:34 51°16.119 2°54.582 -999 -999 -999 -999
2007-12-18 07:57:39 51°16.126 2°54.574 -999 -999 -999 -999
2007-12-18 07:57:44 51°16.132 2°54.566 -999 -999 -999 -999
2007-12-18 07:57:49 51°16.137 2°54.558 -999 -999 -999 -999
2007-12-18 07:57:54 51°16.142 2°54.549 -999 -999 -999 -999
2007-12-18 07:58:00 51°16.147 2°54.539 -999 -999 -999 -999
2007-12-18 07:58:04 51°16.149 2°54.532 -999 -999 -999 -999
2007-12-18 07:58:09 51°16.153 2°54.524 -999 -999 -999 -999
2007-12-18 07:58:14 51°16.155 2°54.515 -999 -999 -999 -999
2007-12-18 07:58:19 51°16.158 2°54.506 -999 -999 -999 -999
2007-12-18 07:58:24 51°16.16 2°54.498 -999 -999 -999 -999
2007-12-18 07:58:29 51°16.163 2°54.489 -999 -999 -999 -999
2007-12-18 07:58:34 51°16.166 2°54.48 -999 -999 -999 -999
2007-12-18 07:58:39 51°16.169 2°54.472 -999 -999 -999 -999
2007-12-18 07:58:44 51°16.172 2°54.465 -999 -999 -999 -999
2007-12-18 07:58:49 51°16.176 2°54.457 -999 -999 -999 -999
2007-12-18 07:58:54 51°16.179 2°54.45 -999 -999 -999 -999
2007-12-18 07:58:59 51°16.183 2°54.442 -999 -999 -999 -999
2007-12-18 07:59:04 51°16.187 2°54.435 -999 -999 -999 -999
2007-12-18 07:59:09 51°16.191 2°54.428 -999 -999 -999 -999
2007-12-18 07:59:14 51°16.194 2°54.42 -999 -999 -999 -999
2007-12-18 07:59:19 51°16.198 2°54.413 -999 -999 -999 -999
2007-12-18 07:59:24 51°16.201 2°54.405 -999 -999 -999 -999
2007-12-18 07:59:29 51°16.204 2°54.397 -999 -999 -999 -999
2007-12-18 07:59:34 51°16.207 2°54.389 -999 -999 -999 -999
2007-12-18 07:59:39 51°16.21 2°54.381 -999 -999 -999 -999
2007-12-18 07:59:44 51°16.212 2°54.373 -999 -999 -999 -999
2007-12-18 07:59:49 51°16.215 2°54.365 -999 -999 -999 -999
2007-12-18 07:59:54 51°16.217 2°54.357 -999 -999 -999 -999
2007-12-18 07:59:59 51°16.22 2°54.348 -999 -999 -999 -999
2007-12-18 08:00:04 51°16.222 2°54.341 -999 -999 -999 -999
2007-12-18 08:00:09 51°16.225 2°54.333 -999 -999 -999 -999
2007-12-18 08:00:14 51°16.227 2°54.326 -999 -999 -999 -999
2007-12-18 08:00:19 51°16.23 2°54.32 -999 -999 -999 -999
2007-12-18 08:00:24 51°16.233 2°54.314 -999 -999 -999 -999
2007-12-18 08:00:29 51°16.235 2°54.309 -999 -999 -999 -999
2007-12-18 08:00:34 51°16.237 2°54.305 -999 -999 -999 -999
2007-12-18 08:00:39 51°16.239 2°54.302 -999 -999 -999 -999
2007-12-18 08:00:44 51°16.241 2°54.299 -999 -999 -999 -999
2007-12-18 08:00:49 51°16.242 2°54.298 -999 -999 -999 -999
2007-12-18 08:00:54 51°16.244 2°54.297 -999 -999 -999 -999
2007-12-18 08:00:59 51°16.245 2°54.297 -999 -999 -999 -999
2007-12-18 08:01:04 51°16.246 2°54.297 -999 -999 -999 -999
2007-12-18 08:01:09 51°16.247 2°54.297 -999 -999 -999 -999
2007-12-18 08:01:14 51°16.248 2°54.297 -999 -999 -999 -999
2007-12-18 08:01:19 51°16.249 2°54.297 -999 -999 -999 -999
2007-12-18 08:01:24 51°16.25 2°54.297 -999 -999 -999 -999
2007-12-18 08:01:29 51°16.251 2°54.297 -999 -999 -999 -999
2007-12-18 08:01:34 51°16.252 2°54.297 -999 -999 -999 -999
2007-12-18 08:01:39 51°16.253 2°54.297 -999 -999 -999 -999
2007-12-18 08:01:44 51°16.254 2°54.297 -999 -999 -999 -999
2007-12-18 08:01:49 51°16.255 2°54.297 -999 -999 -999 -999
2007-12-18 08:01:54 51°16.256 2°54.297 -999 -999 -999 -999
2007-12-18 08:01:59 51°16.257 2°54.297 -999 -999 -999 -999
2007-12-18 08:02:04 51°16.258 2°54.297 -999 -999 -999 -999
2007-12-18 08:02:09 51°16.259 2°54.297 -999 -999 -999 -999
2007-12-18 08:02:14 51°16.26 2°54.297 -999 -999 -999 -999
2007-12-18 08:02:19 51°16.261 2°54.298 -999 -999 -999 -999
2007-12-18 08:02:24 51°16.262 2°54.298 -999 -999 -999 -999
2007-12-18 08:02:29 51°16.263 2°54.298 -999 -999 -999 -999
2007-12-18 08:02:34 51°16.263 2°54.298 -999 -999 -999 -999
2007-12-18 08:02:39 51°16.264 2°54.299 -999 -999 -999 -999
2007-12-18 08:02:44 51°16.265 2°54.299 -999 -999 -999 -999
2007-12-18 08:02:49 51°16.266 2°54.299 -999 -999 -999 -999
2007-12-18 08:02:54 51°16.266 2°54.299 -999 -999 -999 -999
2007-12-18 08:02:59 51°16.267 2°54.299 -999 -999 -999 -999
2007-12-18 08:03:04 51°16.268 2°54.299 -999 -999 -999 -999
2007-12-18 08:03:09 51°16.268 2°54.299 -999 -999 -999 -999
2007-12-18 08:03:14 51°16.269 2°54.299 -999 -999 -999 -999
2007-12-18 08:03:19 51°16.269 2°54.3 -999 -999 -999 -999
2007-12-18 08:03:24 51°16.27 2°54.3 -999 -999 -999 -999
2007-12-18 08:03:29 51°16.271 2°54.3 -999 -999 -999 -999
2007-12-18 08:03:34 51°16.271 2°54.3 -999 -999 -999 -999
2007-12-18 08:03:39 51°16.272 2°54.3 -999 -999 -999 -999
2007-12-18 08:03:44 51°16.272 2°54.3 -999 -999 -999 -999
2007-12-18 08:03:49 51°16.273 2°54.3 -999 -999 -999 -999
2007-12-18 08:03:54 51°16.273 2°54.3 -999 -999 -999 -999
2007-12-18 08:03:59 51°16.274 2°54.301 -999 -999 -999 -999
2007-12-18 08:04:04 51°16.274 2°54.301 -999 -999 -999 -999
2007-12-18 08:04:09 51°16.275 2°54.301 -999 -999 -999 -999
2007-12-18 08:04:14 51°16.275 2°54.301 -999 -999 -999 -999
2007-12-18 08:04:19 51°16.276 2°54.302 -999 -999 -999 -999
2007-12-18 08:04:24 51°16.276 2°54.302 -999 -999 -999 -999
2007-12-18 08:04:29 51°16.277 2°54.302 -999 -999 -999 -999
2007-12-18 08:04:34 51°16.277 2°54.302 -999 -999 -999 -999
2007-12-18 08:04:39 51°16.278 2°54.302 -999 -999 -999 -999
2007-12-18 08:04:44 51°16.278 2°54.302 -999 -999 -999 -999
2007-12-18 08:04:49 51°16.278 2°54.302 -999 -999 -999 -999
2007-12-18 08:04:54 51°16.279 2°54.302 -999 -999 -999 -999
2007-12-18 08:05:00 51°16.28 2°54.303 -999 -999 -999 -999
2007-12-18 08:05:04 51°16.28 2°54.303 -999 -999 -999 -999
2007-12-18 08:05:09 51°16.28 2°54.303 -999 -999 -999 -999
2007-12-18 08:05:14 51°16.281 2°54.303 -999 -999 -999 -999
2007-12-18 08:05:19 51°16.281 2°54.303 -999 -999 -999 -999
2007-12-18 08:05:24 51°16.282 2°54.304 -999 -999 -999 -999
2007-12-18 08:05:29 51°16.282 2°54.304 -999 -999 -999 -999
2007-12-18 08:05:34 51°16.283 2°54.304 -999 -999 -999 -999
2007-12-18 08:05:39 51°16.284 2°54.303 -999 -999 -999 -999
2007-12-18 08:05:44 51°16.285 2°54.303 -999 -999 -999 -999
2007-12-18 08:05:49 51°16.286 2°54.302 -999 -999 -999 -999
2007-12-18 08:05:54 51°16.288 2°54.301 -999 -999 -999 -999
2007-12-18 08:05:59 51°16.291 2°54.298 -999 -999 -999 -999
2007-12-18 08:06:04 51°16.296 2°54.295 -999 -999 -999 -999
2007-12-18 08:06:09 51°16.301 2°54.29 -999 -999 -999 -999
2007-12-18 08:06:14 51°16.308 2°54.283 -999 -999 -999 -999
2007-12-18 08:06:19 51°16.315 2°54.275 -999 -999 -999 -999
2007-12-18 08:06:24 51°16.324 2°54.267 -999 -999 -999 -999
2007-12-18 08:06:29 51°16.332 2°54.256 -999 -999 -999 -999
2007-12-18 08:06:34 51°16.341 2°54.245 -999 -999 -999 -999
2007-12-18 08:06:39 51°16.351 2°54.232 -999 -999 -999 -999
2007-12-18 08:06:44 51°16.361 2°54.218 -999 -999 -999 -999
2007-12-18 08:06:49 51°16.371 2°54.204 -999 -999 -999 -999
2007-12-18 08:06:54 51°16.381 2°54.188 -999 -999 -999 -999
2007-12-18 08:07:00 51°16.394 2°54.167 -999 -999 -999 -999
2007-12-18 08:07:04 51°16.402 2°54.153 -999 -999 -999 -999
2007-12-18 08:07:09 51°16.412 2°54.134 -999 -999 -999 -999
2007-12-18 08:07:14 51°16.423 2°54.115 -999 -999 -999 -999
2007-12-18 08:07:19 51°16.433 2°54.095 -999 -999 -999 -999
2007-12-18 08:07:24 51°16.443 2°54.075 -999 -999 -999 -999
2007-12-18 08:07:29 51°16.454 2°54.054 -999 -999 -999 -999
2007-12-18 08:07:34 51°16.464 2°54.032 -999 -999 -999 -999
2007-12-18 08:07:39 51°16.474 2°54.011 -999 -999 -999 -999
2007-12-18 08:07:44 51°16.485 2°53.989 -999 -999 -999 -999
2007-12-18 08:07:49 51°16.495 2°53.967 -999 -999 -999 -999
2007-12-18 08:07:54 51°16.507 2°53.946 -999 -999 -999 -999
2007-12-18 08:07:59 51°16.518 2°53.925 -999 -999 -999 -999
2007-12-18 08:08:04 51°16.529 2°53.904 -999 -999 -999 -999
2007-12-18 08:08:09 51°16.541 2°53.884 -999 -999 -999 -999
2007-12-18 08:08:14 51°16.552 2°53.863 -999 -999 -999 -999
2007-12-18 08:08:19 51°16.564 2°53.843 -999 -999 -999 -999
2007-12-18 08:08:24 51°16.576 2°53.822 -999 -999 -999 -999
2007-12-18 08:08:29 51°16.587 2°53.801 -999 -999 -999 -999
2007-12-18 08:08:34 51°16.599 2°53.78 -999 -999 -999 -999
2007-12-18 08:08:39 51°16.611 2°53.76 -999 -999 -999 -999
2007-12-18 08:08:44 51°16.623 2°53.739 -999 -999 -999 -999
2007-12-18 08:08:49 51°16.635 2°53.719 -999 -999 -999 -999
2007-12-18 08:08:54 51°16.646 2°53.699 -999 -999 -999 -999
2007-12-18 08:08:59 51°16.658 2°53.678 -999 -999 -999 -999
2007-12-18 08:09:04 51°16.67 2°53.657 -999 -999 -999 -999
2007-12-18 08:09:09 51°16.681 2°53.636 -999 -999 -999 -999
2007-12-18 08:09:14 51°16.692 2°53.615 -999 -999 -999 -999
2007-12-18 08:09:19 51°16.704 2°53.594 -999 -999 -999 -999
2007-12-18 08:09:24 51°16.716 2°53.573 -999 -999 -999 -999
2007-12-18 08:09:29 51°16.727 2°53.552 -999 -999 -999 -999
2007-12-18 08:09:34 51°16.739 2°53.531 -999 -999 -999 -999
2007-12-18 08:09:39 51°16.75 2°53.51 -999 -999 -999 -999
2007-12-18 08:09:44 51°16.762 2°53.489 -999 -999 -999 -999
2007-12-18 08:09:49 51°16.773 2°53.468 -999 -999 -999 -999
2007-12-18 08:09:54 51°16.785 2°53.446 -999 -999 -999 -999
2007-12-18 08:09:59 51°16.795 2°53.425 -999 -999 -999 -999
2007-12-18 08:10:04 51°16.806 2°53.402 -999 -999 -999 -999
2007-12-18 08:10:09 51°16.816 2°53.38 -999 -999 -999 -999
2007-12-18 08:10:14 51°16.826 2°53.357 -999 -999 -999 -999
2007-12-18 08:10:19 51°16.836 2°53.335 -999 -999 -999 -999
2007-12-18 08:10:24 51°16.846 2°53.313 -999 -999 -999 -999
2007-12-18 08:10:29 51°16.856 2°53.29 -999 -999 -999 -999
2007-12-18 08:10:34 51°16.866 2°53.268 -999 -999 -999 -999
2007-12-18 08:10:39 51°16.877 2°53.246 -999 -999 -999 -999
2007-12-18 08:10:44 51°16.887 2°53.223 -999 -999 -999 -999
2007-12-18 08:10:49 51°16.897 2°53.201 -999 -999 -999 -999
2007-12-18 08:10:54 51°16.906 2°53.178 -999 -999 -999 -999
2007-12-18 08:10:59 51°16.916 2°53.156 -999 -999 -999 -999
2007-12-18 08:11:04 51°16.926 2°53.133 -999 -999 -999 -999
2007-12-18 08:11:09 51°16.936 2°53.111 -999 -999 -999 -999
2007-12-18 08:11:14 51°16.945 2°53.088 -999 -999 -999 -999
2007-12-18 08:11:19 51°16.955 2°53.065 -999 -999 -999 -999
2007-12-18 08:11:24 51°16.965 2°53.042 -999 -999 -999 -999
2007-12-18 08:11:29 51°16.975 2°53.02 -999 -999 -999 -999
2007-12-18 08:11:34 51°16.985 2°52.997 -999 -999 -999 -999
2007-12-18 08:11:39 51°16.995 2°52.974 -999 -999 -999 -999
2007-12-18 08:11:44 51°17.004 2°52.951 -999 -999 -999 -999
2007-12-18 08:11:49 51°17.014 2°52.928 -999 -999 -999 -999
2007-12-18 08:11:54 51°17.024 2°52.905 -999 -999 -999 -999
2007-12-18 08:11:59 51°17.034 2°52.882 -999 -999 -999 -999
2007-12-18 08:12:04 51°17.044 2°52.859 -999 -999 -999 -999
2007-12-18 08:12:09 51°17.054 2°52.836 -999 -999 -999 -999
2007-12-18 08:12:14 51°17.063 2°52.813 -999 -999 -999 -999
2007-12-18 08:12:19 51°17.073 2°52.789 -999 -999 -999 -999
2007-12-18 08:12:24 51°17.082 2°52.766 -999 -999 -999 -999
2007-12-18 08:12:29 51°17.091 2°52.742 -999 -999 -999 -999
2007-12-18 08:12:34 51°17.101 2°52.719 -999 -999 -999 -999
2007-12-18 08:12:39 51°17.11 2°52.695 -999 -999 -999 -999
2007-12-18 08:12:44 51°17.12 2°52.673 -999 -999 -999 -999
2007-12-18 08:12:49 51°17.13 2°52.65 -999 -999 -999 -999
2007-12-18 08:12:54 51°17.141 2°52.628 -999 -999 -999 -999
2007-12-18 08:12:59 51°17.151 2°52.606 -999 -999 -999 -999
2007-12-18 08:13:04 51°17.163 2°52.585 -999 -999 -999 -999
2007-12-18 08:13:09 51°17.174 2°52.564 -999 -999 -999 -999
2007-12-18 08:13:14 51°17.187 2°52.544 -999 -999 -999 -999
2007-12-18 08:13:19 51°17.199 2°52.523 -999 -999 -999 -999
2007-12-18 08:13:24 51°17.212 2°52.504 -999 -999 -999 -999
2007-12-18 08:13:29 51°17.225 2°52.485 -999 -999 -999 -999
2007-12-18 08:13:34 51°17.238 2°52.466 -999 -999 -999 -999
2007-12-18 08:13:39 51°17.253 2°52.449 -999 -999 -999 -999
2007-12-18 08:13:44 51°17.267 2°52.431 -999 -999 -999 -999
2007-12-18 08:13:49 51°17.281 2°52.415 -999 -999 -999 -999
2007-12-18 08:13:54 51°17.296 2°52.398 -999 -999 -999 -999
2007-12-18 08:13:59 51°17.31 2°52.382 -999 -999 -999 -999
2007-12-18 08:14:04 51°17.325 2°52.366 -999 -999 -999 -999
2007-12-18 08:14:09 51°17.34 2°52.35 -999 -999 -999 -999
2007-12-18 08:14:14 51°17.355 2°52.334 -999 -999 -999 -999
2007-12-18 08:14:19 51°17.37 2°52.318 -999 -999 -999 -999
2007-12-18 08:14:24 51°17.385 2°52.302 -999 -999 -999 -999
2007-12-18 08:14:29 51°17.4 2°52.286 -999 -999 -999 -999
2007-12-18 08:14:34 51°17.415 2°52.27 -999 -999 -999 -999
2007-12-18 08:14:39 51°17.43 2°52.255 -999 -999 -999 -999
2007-12-18 08:14:44 51°17.445 2°52.239 -999 -999 -999 -999
2007-12-18 08:14:48 51°17.457 2°52.227 -999 -999 -999 -999
2007-12-18 08:14:54 51°17.475 2°52.209 -999 -999 -999 -999
2007-12-18 08:14:59 51°17.491 2°52.195 -999 -999 -999 -999
2007-12-18 08:15:04 51°17.506 2°52.181 -999 -999 -999 -999
2007-12-18 08:15:09 51°17.522 2°52.167 -999 -999 -999 -999
2007-12-18 08:15:14 51°17.538 2°52.155 -999 -999 -999 -999
2007-12-18 08:15:19 51°17.555 2°52.144 -999 -999 -999 -999
2007-12-18 08:15:24 51°17.571 2°52.134 -999 -999 -999 -999
2007-12-18 08:15:29 51°17.588 2°52.125 -999 -999 -999 -999
2007-12-18 08:15:34 51°17.605 2°52.116 -999 -999 -999 -999
2007-12-18 08:15:39 51°17.623 2°52.107 -999 -999 -999 -999
2007-12-18 08:15:44 51°17.64 2°52.098 -999 -999 -999 -999
2007-12-18 08:15:49 51°17.657 2°52.088 -999 -999 -999 -999
2007-12-18 08:15:54 51°17.674 2°52.079 -999 -999 -999 -999
2007-12-18 08:15:59 51°17.691 2°52.068 -999 -999 -999 -999
2007-12-18 08:16:04 51°17.707 2°52.058 -999 -999 -999 -999
2007-12-18 08:16:09 51°17.724 2°52.048 -999 -999 -999 -999
2007-12-18 08:16:14 51°17.741 2°52.037 -999 -999 -999 -999
2007-12-18 08:16:19 51°17.757 2°52.026 -999 -999 -999 -999
2007-12-18 08:16:24 51°17.774 2°52.016 -999 -999 -999 -999
2007-12-18 08:16:29 51°17.79 2°52.006 -999 -999 -999 -999
2007-12-18 08:16:34 51°17.807 2°51.995 -999 -999 -999 -999
2007-12-18 08:16:39 51°17.823 2°51.985 -999 -999 -999 -999
2007-12-18 08:16:44 51°17.84 2°51.975 -999 -999 -999 -999
2007-12-18 08:16:48 51°17.853 2°51.966 -999 -999 -999 -999
2007-12-18 08:16:54 51°17.873 2°51.954 -999 -999 -999 -999
2007-12-18 08:16:59 51°17.89 2°51.944 -999 -999 -999 -999
2007-12-18 08:17:04 51°17.907 2°51.933 -999 -999 -999 -999
2007-12-18 08:17:09 51°17.923 2°51.922 -999 -999 -999 -999
2007-12-18 08:17:14 51°17.94 2°51.91 -999 -999 -999 -999
2007-12-18 08:17:19 51°17.956 2°51.898 -999 -999 -999 -999
2007-12-18 08:17:24 51°17.971 2°51.885 -999 -999 -999 -999
2007-12-18 08:17:29 51°17.987 2°51.871 -999 -999 -999 -999
2007-12-18 08:17:34 51°18.002 2°51.856 -999 -999 -999 -999
2007-12-18 08:17:39 51°18.017 2°51.841 -999 -999 -999 -999
2007-12-18 08:17:44 51°18.032 2°51.825 -999 -999 -999 -999
2007-12-18 08:17:49 51°18.046 2°51.809 -999 -999 -999 -999
2007-12-18 08:17:55 51°18.062 2°51.786 -999 -999 -999 -999
2007-12-18 08:17:59 51°18.073 2°51.772 -999 -999 -999 -999
2007-12-18 08:18:04 51°18.086 2°51.752 -999 -999 -999 -999
2007-12-18 08:18:08 51°18.096 2°51.736 -999 -999 -999 -999
2007-12-18 08:18:14 51°18.11 2°51.712 -999 -999 -999 -999
2007-12-18 08:18:19 51°18.123 2°51.691 -999 -999 -999 -999
2007-12-18 08:18:24 51°18.135 2°51.671 -999 -999 -999 -999
2007-12-18 08:18:29 51°18.147 2°51.65 -999 -999 -999 -999
2007-12-18 08:18:34 51°18.159 2°51.63 -999 -999 -999 -999
2007-12-18 08:18:39 51°18.171 2°51.609 -999 -999 -999 -999
2007-12-18 08:18:44 51°18.183 2°51.589 -999 -999 -999 -999
2007-12-18 08:18:49 51°18.196 2°51.568 -999 -999 -999 -999
2007-12-18 08:18:54 51°18.207 2°51.547 -999 -999 -999 -999
2007-12-18 08:18:59 51°18.219 2°51.526 -999 -999 -999 -999
2007-12-18 08:19:04 51°18.231 2°51.505 -999 -999 -999 -999
2007-12-18 08:19:09 51°18.243 2°51.484 -999 -999 -999 -999
2007-12-18 08:19:14 51°18.254 2°51.463 -999 -999 -999 -999
2007-12-18 08:19:19 51°18.266 2°51.442 -999 -999 -999 -999
2007-12-18 08:19:24 51°18.278 2°51.42 -999 -999 -999 -999
2007-12-18 08:19:29 51°18.289 2°51.399 -999 -999 -999 -999
2007-12-18 08:19:34 51°18.3 2°51.377 -999 -999 -999 -999
2007-12-18 08:19:39 51°18.312 2°51.355 -999 -999 -999 -999
2007-12-18 08:19:44 51°18.322 2°51.333 -999 -999 -999 -999
2007-12-18 08:19:49 51°18.333 2°51.311 -999 -999 -999 -999
2007-12-18 08:19:54 51°18.344 2°51.289 -999 -999 -999 -999
2007-12-18 08:19:59 51°18.354 2°51.268 -999 -999 -999 -999
2007-12-18 08:20:04 51°18.364 2°51.249 -999 -999 -999 -999
2007-12-18 08:20:08 51°18.371 2°51.233 -999 -999 -999 -999
2007-12-18 08:20:14 51°18.383 2°51.211 -999 -999 -999 -999
2007-12-18 08:20:19 51°18.391 2°51.195 -999 -999 -999 -999
2007-12-18 08:20:24 51°18.399 2°51.18 -999 -999 -999 -999
2007-12-18 08:20:28 51°18.405 2°51.169 -999 -999 -999 -999
2007-12-18 08:20:34 51°18.414 2°51.153 -999 -999 -999 -999
2007-12-18 08:20:39 51°18.422 2°51.141 -999 -999 -999 -999
2007-12-18 08:20:44 51°18.429 2°51.13 -999 -999 -999 -999
2007-12-18 08:20:49 51°18.435 2°51.119 -999 -999 -999 -999
2007-12-18 08:20:54 51°18.442 2°51.109 -999 -999 -999 -999
2007-12-18 08:20:59 51°18.448 2°51.1 -999 -999 -999 -999
2007-12-18 08:21:04 51°18.455 2°51.091 -999 -999 -999 -999
2007-12-18 08:21:09 51°18.461 2°51.082 -999 -999 -999 -999
2007-12-18 08:21:14 51°18.466 2°51.074 -999 -999 -999 -999
2007-12-18 08:21:19 51°18.471 2°51.065 -999 -999 -999 -999
2007-12-18 08:21:24 51°18.476 2°51.057 -999 -999 -999 -999
2007-12-18 08:21:29 51°18.48 2°51.049 -999 -999 -999 -999
2007-12-18 08:21:34 51°18.484 2°51.041 -999 -999 -999 -999
2007-12-18 08:21:39 51°18.488 2°51.033 -999 -999 -999 -999
2007-12-18 08:21:44 51°18.491 2°51.026 -999 -999 -999 -999
2007-12-18 08:21:49 51°18.495 2°51.018 -999 -999 -999 -999
2007-12-18 08:21:54 51°18.497 2°51.011 -999 -999 -999 -999
2007-12-18 08:21:59 51°18.5 2°51.005 -999 -999 -999 -999
2007-12-18 08:22:04 51°18.502 2°50.999 -999 -999 -999 -999
2007-12-18 08:22:09 51°18.505 2°50.995 -999 -999 -999 -999
2007-12-18 08:22:14 51°18.507 2°50.991 -999 -999 -999 -999
2007-12-18 08:22:19 51°18.509 2°50.988 -999 -999 -999 -999
2007-12-18 08:22:24 51°18.51 2°50.986 -999 -999 -999 -999
2007-12-18 08:22:29 51°18.511 2°50.985 -999 -999 -999 -999
2007-12-18 08:22:34 51°18.512 2°50.985 -999 -999 -999 -999
2007-12-18 08:22:39 51°18.513 2°50.984 -999 -999 -999 -999
2007-12-18 08:22:44 51°18.514 2°50.984 -999 -999 -999 -999
2007-12-18 08:22:49 51°18.514 2°50.983 -999 -999 -999 -999
2007-12-18 08:22:54 51°18.515 2°50.982 -999 -999 -999 -999
2007-12-18 08:22:59 51°18.516 2°50.982 -999 -999 -999 -999
2007-12-18 08:23:04 51°18.517 2°50.982 -999 -999 -999 -999
2007-12-18 08:23:09 51°18.518 2°50.981 -999 -999 -999 -999
2007-12-18 08:23:14 51°18.519 2°50.981 -999 -999 -999 -999
2007-12-18 08:23:19 51°18.52 2°50.98 -999 -999 -999 -999
2007-12-18 08:23:24 51°18.521 2°50.979 -999 -999 -999 -999
2007-12-18 08:23:28 51°18.521 2°50.979 -999 -999 -999 -999
2007-12-18 08:23:34 51°18.522 2°50.978 -999 -999 -999 -999
2007-12-18 08:23:39 51°18.523 2°50.977 -999 -999 -999 -999
2007-12-18 08:23:44 51°18.524 2°50.976 -999 -999 -999 -999
2007-12-18 08:23:49 51°18.525 2°50.976 -999 -999 -999 -999
2007-12-18 08:23:54 51°18.526 2°50.975 -999 -999 -999 -999
2007-12-18 08:23:59 51°18.526 2°50.974 -999 -999 -999 -999
2007-12-18 08:24:04 51°18.527 2°50.973 -999 -999 -999 -999
2007-12-18 08:24:09 51°18.528 2°50.973 -999 -999 -999 -999
2007-12-18 08:24:14 51°18.528 2°50.972 -999 -999 -999 -999
2007-12-18 08:24:19 51°18.529 2°50.971 -999 -999 -999 -999
2007-12-18 08:24:24 51°18.529 2°50.97 -999 -999 -999 -999
2007-12-18 08:24:29 51°18.53 2°50.969 -999 -999 -999 -999
2007-12-18 08:24:34 51°18.531 2°50.968 -999 -999 -999 -999
2007-12-18 08:24:39 51°18.531 2°50.968 -999 -999 -999 -999
2007-12-18 08:24:44 51°18.532 2°50.967 -999 -999 -999 -999
2007-12-18 08:24:49 51°18.533 2°50.967 -999 -999 -999 -999
2007-12-18 08:24:54 51°18.534 2°50.966 -999 -999 -999 -999
2007-12-18 08:24:59 51°18.534 2°50.965 -999 -999 -999 -999
2007-12-18 08:25:04 51°18.535 2°50.965 -999 -999 -999 -999
2007-12-18 08:25:09 51°18.536 2°50.964 -999 -999 -999 -999
2007-12-18 08:25:14 51°18.536 2°50.963 -999 -999 -999 -999
2007-12-18 08:25:19 51°18.537 2°50.963 -999 -999 -999 -999
2007-12-18 08:25:24 51°18.538 2°50.962 -999 -999 -999 -999
2007-12-18 08:25:29 51°18.538 2°50.961 -999 -999 -999 -999
2007-12-18 08:25:34 51°18.539 2°50.96 -999 -999 -999 -999
2007-12-18 08:25:39 51°18.54 2°50.96 -999 -999 -999 -999
2007-12-18 08:25:44 51°18.54 2°50.96 -999 -999 -999 -999
2007-12-18 08:25:49 51°18.541 2°50.959 -999 -999 -999 -999
2007-12-18 08:25:54 51°18.542 2°50.958 -999 -999 -999 -999
2007-12-18 08:25:59 51°18.542 2°50.958 -999 -999 -999 -999
2007-12-18 08:26:04 51°18.543 2°50.957 -999 -999 -999 -999
2007-12-18 08:26:09 51°18.543 2°50.956 -999 -999 -999 -999
2007-12-18 08:26:14 51°18.544 2°50.955 -999 -999 -999 -999
2007-12-18 08:26:19 51°18.544 2°50.955 -999 -999 -999 -999
2007-12-18 08:26:24 51°18.545 2°50.954 -999 -999 -999 -999
2007-12-18 08:26:29 51°18.546 2°50.953 -999 -999 -999 -999
2007-12-18 08:26:34 51°18.546 2°50.952 -999 -999 -999 -999
2007-12-18 08:26:39 51°18.547 2°50.952 -999 -999 -999 -999
2007-12-18 08:26:44 51°18.547 2°50.951 -999 -999 -999 -999
2007-12-18 08:26:48 51°18.548 2°50.951 -999 -999 -999 -999
2007-12-18 08:26:55 51°18.549 2°50.949 -999 -999 -999 -999
2007-12-18 08:26:59 51°18.549 2°50.949 -999 -999 -999 -999
2007-12-18 08:27:04 51°18.55 2°50.948 -999 -999 -999 -999
2007-12-18 08:27:09 51°18.551 2°50.947 -999 -999 -999 -999
2007-12-18 08:27:14 51°18.553 2°50.946 -999 -999 -999 -999
2007-12-18 08:27:19 51°18.554 2°50.945 -999 -999 -999 -999
2007-12-18 08:27:24 51°18.556 2°50.944 -999 -999 -999 -999
2007-12-18 08:27:29 51°18.558 2°50.943 -999 -999 -999 -999
2007-12-18 08:27:34 51°18.561 2°50.942 -999 -999 -999 -999
2007-12-18 08:27:40 51°18.565 2°50.941 -999 -999 -999 -999
2007-12-18 08:27:44 51°18.568 2°50.941 -999 -999 -999 -999
2007-12-18 08:27:49 51°18.571 2°50.942 -999 -999 -999 -999
2007-12-18 08:27:54 51°18.575 2°50.942 -999 -999 -999 -999
2007-12-18 08:27:59 51°18.579 2°50.943 -999 -999 -999 -999
2007-12-18 08:28:04 51°18.583 2°50.945 -999 -999 -999 -999
2007-12-18 08:28:09 51°18.587 2°50.947 -999 -999 -999 -999
2007-12-18 08:28:14 51°18.592 2°50.95 -999 -999 -999 -999
2007-12-18 08:28:19 51°18.596 2°50.953 -999 -999 -999 -999
2007-12-18 08:28:24 51°18.6 2°50.957 -999 -999 -999 -999
2007-12-18 08:28:29 51°18.604 2°50.963 -999 -999 -999 -999
2007-12-18 08:28:34 51°18.608 2°50.969 -999 -999 -999 -999
2007-12-18 08:28:39 51°18.611 2°50.975 -999 -999 -999 -999
2007-12-18 08:28:44 51°18.615 2°50.983 -999 -999 -999 -999
2007-12-18 08:28:49 51°18.617 2°50.992 -999 -999 -999 -999
2007-12-18 08:28:54 51°18.62 2°51.001 -999 -999 -999 -999
2007-12-18 08:28:59 51°18.623 2°51.012 -999 -999 -999 -999
2007-12-18 08:29:04 51°18.626 2°51.025 -999 -999 -999 -999
2007-12-18 08:29:09 51°18.63 2°51.039 -999 -999 -999 -999
2007-12-18 08:29:14 51°18.635 2°51.055 -999 -999 -999 -999
2007-12-18 08:29:19 51°18.64 2°51.072 -999 -999 -999 -999
2007-12-18 08:29:24 51°18.645 2°51.089 -999 -999 -999 -999
2007-12-18 08:29:29 51°18.651 2°51.108 -999 -999 -999 -999
2007-12-18 08:29:34 51°18.657 2°51.126 -999 -999 -999 -999
2007-12-18 08:29:39 51°18.663 2°51.146 -999 -999 -999 -999
2007-12-18 08:29:44 51°18.67 2°51.166 -999 -999 -999 -999
2007-12-18 08:29:48 51°18.675 2°51.182 -999 -999 -999 -999
2007-12-18 08:29:54 51°18.682 2°51.207 -999 -999 -999 -999
2007-12-18 08:29:59 51°18.689 2°51.228 -999 -999 -999 -999
2007-12-18 08:30:04 51°18.695 2°51.249 -999 -999 -999 -999
2007-12-18 08:30:08 51°18.699 2°51.267 -999 -999 -999 -999
2007-12-18 08:30:14 51°18.706 2°51.293 -999 -999 -999 -999
2007-12-18 08:30:19 51°18.713 2°51.315 -999 -999 -999 -999
2007-12-18 08:30:24 51°18.718 2°51.338 -999 -999 -999 -999
2007-12-18 08:30:29 51°18.724 2°51.36 -999 -999 -999 -999
2007-12-18 08:30:34 51°18.729 2°51.382 -999 -999 -999 -999
2007-12-18 08:30:39 51°18.735 2°51.405 -999 -999 -999 -999
2007-12-18 08:30:44 51°18.741 2°51.427 -999 -999 -999 -999
2007-12-18 08:30:49 51°18.746 2°51.45 -999 -999 -999 -999
2007-12-18 08:30:54 51°18.752 2°51.473 -999 -999 -999 -999
2007-12-18 08:30:59 51°18.757 2°51.496 -999 -999 -999 -999
2007-12-18 08:31:04 51°18.762 2°51.521 -999 -999 -999 -999
2007-12-18 08:31:09 51°18.766 2°51.546 -999 -999 -999 -999
2007-12-18 08:31:14 51°18.771 2°51.572 -999 -999 -999 -999
2007-12-18 08:31:19 51°18.776 2°51.599 -999 -999 -999 -999
2007-12-18 08:31:24 51°18.78 2°51.626 -999 -999 -999 -999
2007-12-18 08:31:29 51°18.783 2°51.654 -999 -999 -999 -999
2007-12-18 08:31:34 51°18.788 2°51.682 -999 -999 -999 -999
2007-12-18 08:31:39 51°18.791 2°51.71 -999 -999 -999 -999
2007-12-18 08:31:44 51°18.796 2°51.738 -999 -999 -999 -999
2007-12-18 08:31:49 51°18.799 2°51.767 -999 -999 -999 -999
2007-12-18 08:31:54 51°18.804 2°51.795 -999 -999 -999 -999
2007-12-18 08:31:59 51°18.807 2°51.824 -999 -999 -999 -999
2007-12-18 08:32:04 51°18.811 2°51.852 -999 -999 -999 -999
2007-12-18 08:32:08 51°18.813 2°51.875 -999 -999 -999 -999
2007-12-18 08:32:14 51°18.818 2°51.909 -999 -999 -999 -999
2007-12-18 08:32:19 51°18.822 2°51.938 -999 -999 -999 -999
2007-12-18 08:32:24 51°18.826 2°51.966 -999 -999 -999 -999
2007-12-18 08:32:29 51°18.831 2°51.994 -999 -999 -999 -999
2007-12-18 08:32:34 51°18.836 2°52.023 -999 -999 -999 -999
2007-12-18 08:32:39 51°18.84 2°52.051 -999 -999 -999 -999
2007-12-18 08:32:44 51°18.845 2°52.079 -999 -999 -999 -999
2007-12-18 08:32:49 51°18.85 2°52.107 -999 -999 -999 -999
2007-12-18 08:32:54 51°18.855 2°52.136 -999 -999 -999 -999
2007-12-18 08:32:59 51°18.86 2°52.163 -999 -999 -999 -999
2007-12-18 08:33:04 51°18.865 2°52.192 -999 -999 -999 -999
2007-12-18 08:33:09 51°18.87 2°52.219 -999 -999 -999 -999
2007-12-18 08:33:14 51°18.875 2°52.248 -999 -999 -999 -999
2007-12-18 08:33:19 51°18.88 2°52.275 -999 -999 -999 -999
2007-12-18 08:33:24 51°18.885 2°52.304 -999 -999 -999 -999
2007-12-18 08:33:29 51°18.889 2°52.332 -999 -999 -999 -999
2007-12-18 08:33:34 51°18.894 2°52.361 -999 -999 -999 -999
2007-12-18 08:33:39 51°18.898 2°52.389 -999 -999 -999 -999
2007-12-18 08:33:44 51°18.903 2°52.418 -999 -999 -999 -999
2007-12-18 08:33:49 51°18.908 2°52.446 -999 -999 -999 -999
2007-12-18 08:33:54 51°18.912 2°52.474 -999 -999 -999 -999
2007-12-18 08:33:59 51°18.917 2°52.503 -999 -999 -999 -999
2007-12-18 08:34:04 51°18.922 2°52.53 -999 -999 -999 -999
2007-12-18 08:34:09 51°18.926 2°52.559 -999 -999 -999 -999
2007-12-18 08:34:14 51°18.931 2°52.587 -999 -999 -999 -999
2007-12-18 08:34:19 51°18.936 2°52.615 -999 -999 -999 -999
2007-12-18 08:34:24 51°18.94 2°52.643 -999 -999 -999 -999
2007-12-18 08:34:29 51°18.945 2°52.671 -999 -999 -999 -999
2007-12-18 08:34:34 51°18.949 2°52.7 -999 -999 -999 -999
2007-12-18 08:34:39 51°18.954 2°52.728 -999 -999 -999 -999
2007-12-18 08:34:44 51°18.958 2°52.756 -999 -999 -999 -999
2007-12-18 08:34:49 51°18.963 2°52.785 -999 -999 -999 -999
2007-12-18 08:34:54 51°18.968 2°52.813 -999 -999 -999 -999
2007-12-18 08:34:59 51°18.973 2°52.841 -999 -999 -999 -999
2007-12-18 08:35:04 51°18.977 2°52.869 -999 -999 -999 -999
2007-12-18 08:35:08 51°18.981 2°52.892 -999 -999 -999 -999
2007-12-18 08:35:14 51°18.987 2°52.925 -999 -999 -999 -999
2007-12-18 08:35:19 51°18.991 2°52.953 -999 -999 -999 -999
2007-12-18 08:35:24 51°18.996 2°52.981 -999 -999 -999 -999
2007-12-18 08:35:28 51°19 2°53.004 -999 -999 -999 -999
2007-12-18 08:35:34 51°19.005 2°53.038 -999 -999 -999 -999
2007-12-18 08:35:39 51°19.01 2°53.066 -999 -999 -999 -999
2007-12-18 08:35:45 51°19.015 2°53.099 -999 -999 -999 -999
2007-12-18 08:35:49 51°19.018 2°53.122 -999 -999 -999 -999
2007-12-18 08:35:54 51°19.023 2°53.15 -999 -999 -999 -999
2007-12-18 08:35:59 51°19.027 2°53.178 -999 -999 -999 -999
2007-12-18 08:36:04 51°19.034 2°53.205 -999 -999 -999 -999
2007-12-18 08:36:09 51°19.038 2°53.233 -999 -999 -999 -999
2007-12-18 08:36:14 51°19.044 2°53.26 -999 -999 -999 -999
2007-12-18 08:36:19 51°19.05 2°53.288 -999 -999 -999 -999
2007-12-18 08:36:24 51°19.056 2°53.315 -999 -999 -999 -999
2007-12-18 08:36:28 51°19.061 2°53.337 -999 -999 -999 -999
2007-12-18 08:36:34 51°19.068 2°53.37 -999 -999 -999 -999
2007-12-18 08:36:39 51°19.074 2°53.398 -999 -999 -999 -999
2007-12-18 08:36:44 51°19.079 2°53.426 -999 -999 -999 -999
2007-12-18 08:36:49 51°19.085 2°53.453 -999 -999 -999 -999
2007-12-18 08:36:54 51°19.091 2°53.481 -999 -999 -999 -999
2007-12-18 08:36:59 51°19.097 2°53.509 -999 -999 -999 -999
2007-12-18 08:37:04 51°19.103 2°53.536 -999 -999 -999 -999
2007-12-18 08:37:09 51°19.108 2°53.564 -999 -999 -999 -999
2007-12-18 08:37:14 51°19.114 2°53.592 -999 -999 -999 -999
2007-12-18 08:37:19 51°19.119 2°53.62 -999 -999 -999 -999
2007-12-18 08:37:24 51°19.124 2°53.648 -999 -999 -999 -999
2007-12-18 08:37:28 51°19.129 2°53.67 -999 -999 -999 -999
2007-12-18 08:37:34 51°19.135 2°53.704 -999 -999 -999 -999
2007-12-18 08:37:39 51°19.14 2°53.732 -999 -999 -999 -999
2007-12-18 08:37:45 51°19.146 2°53.766 -999 -999 -999 -999
2007-12-18 08:37:48 51°19.149 2°53.783 -999 -999 -999 -999
2007-12-18 08:37:54 51°19.156 2°53.816 -999 -999 -999 -999
2007-12-18 08:37:59 51°19.161 2°53.844 -999 -999 -999 -999
2007-12-18 08:38:04 51°19.166 2°53.872 -999 -999 -999 -999
2007-12-18 08:38:08 51°19.17 2°53.895 -999 -999 -999 -999
2007-12-18 08:38:14 51°19.177 2°53.927 -999 -999 -999 -999
2007-12-18 08:38:19 51°19.182 2°53.955 -999 -999 -999 -999
2007-12-18 08:38:24 51°19.187 2°53.983 -999 -999 -999 -999
2007-12-18 08:38:28 51°19.192 2°54.005 -999 -999 -999 -999
2007-12-18 08:38:34 51°19.198 2°54.039 -999 -999 -999 -999
2007-12-18 08:38:39 51°19.203 2°54.066 -999 -999 -999 -999
2007-12-18 08:38:44 51°19.208 2°54.094 -999 -999 -999 -999
2007-12-18 08:38:48 51°19.213 2°54.116 -999 -999 -999 -999
2007-12-18 08:38:54 51°19.219 2°54.15 -999 -999 -999 -999
2007-12-18 08:38:59 51°19.224 2°54.177 -999 -999 -999 -999
2007-12-18 08:39:04 51°19.229 2°54.205 -999 -999 -999 -999
2007-12-18 08:39:08 51°19.234 2°54.228 -999 -999 -999 -999
2007-12-18 08:39:14 51°19.24 2°54.26 -999 -999 -999 -999
2007-12-18 08:39:19 51°19.246 2°54.288 -999 -999 -999 -999
2007-12-18 08:39:24 51°19.252 2°54.315 -999 -999 -999 -999
2007-12-18 08:39:28 51°19.256 2°54.338 -999 -999 -999 -999
2007-12-18 08:39:34 51°19.263 2°54.371 -999 -999 -999 -999
2007-12-18 08:39:39 51°19.268 2°54.399 -999 -999 -999 -999
2007-12-18 08:39:44 51°19.274 2°54.426 -999 -999 -999 -999
2007-12-18 08:39:49 51°19.279 2°54.454 -999 -999 -999 -999
2007-12-18 08:39:54 51°19.284 2°54.482 -999 -999 -999 -999
2007-12-18 08:39:59 51°19.29 2°54.51 -999 -999 -999 -999
2007-12-18 08:40:04 51°19.295 2°54.538 -999 -999 -999 -999
2007-12-18 08:40:09 51°19.3 2°54.566 -999 -999 -999 -999
2007-12-18 08:40:14 51°19.306 2°54.594 -999 -999 -999 -999
2007-12-18 08:40:19 51°19.311 2°54.621 -999 -999 -999 -999
2007-12-18 08:40:24 51°19.317 2°54.649 -999 -999 -999 -999
2007-12-18 08:40:28 51°19.322 2°54.671 -999 -999 -999 -999
2007-12-18 08:40:34 51°19.328 2°54.704 -999 -999 -999 -999
2007-12-18 08:40:39 51°19.334 2°54.732 -999 -999 -999 -999
2007-12-18 08:40:45 51°19.34 2°54.765 -999 -999 -999 -999
2007-12-18 08:40:48 51°19.343 2°54.782 -999 -999 -999 -999
2007-12-18 08:40:54 51°19.35 2°54.814 -999 -999 -999 -999
2007-12-18 08:40:59 51°19.356 2°54.842 -999 -999 -999 -999
2007-12-18 08:41:04 51°19.362 2°54.869 -999 -999 -999 -999
2007-12-18 08:41:09 51°19.368 2°54.896 -999 -999 -999 -999
2007-12-18 08:41:14 51°19.375 2°54.923 -999 -999 -999 -999
2007-12-18 08:41:19 51°19.38 2°54.951 -999 -999 -999 -999
2007-12-18 08:41:24 51°19.387 2°54.978 -999 -999 -999 -999
2007-12-18 08:41:29 51°19.392 2°55.006 -999 -999 -999 -999
2007-12-18 08:41:34 51°19.398 2°55.033 -999 -999 -999 -999
2007-12-18 08:41:39 51°19.404 2°55.06 -999 -999 -999 -999
2007-12-18 08:41:44 51°19.41 2°55.088 -999 -999 -999 -999
2007-12-18 08:41:49 51°19.415 2°55.116 -999 -999 -999 -999
2007-12-18 08:41:54 51°19.421 2°55.143 -999 -999 -999 -999
2007-12-18 08:41:59 51°19.427 2°55.171 -999 -999 -999 -999
2007-12-18 08:42:04 51°19.433 2°55.198 -999 -999 -999 -999
2007-12-18 08:42:09 51°19.438 2°55.226 -999 -999 -999 -999
2007-12-18 08:42:14 51°19.444 2°55.253 -999 -999 -999 -999
2007-12-18 08:42:19 51°19.45 2°55.28 -999 -999 -999 -999
2007-12-18 08:42:24 51°19.456 2°55.308 -999 -999 -999 -999
2007-12-18 08:42:28 51°19.461 2°55.33 -999 -999 -999 -999
2007-12-18 08:42:34 51°19.467 2°55.363 -999 -999 -999 -999
2007-12-18 08:42:39 51°19.473 2°55.39 -999 -999 -999 -999
2007-12-18 08:42:44 51°19.478 2°55.418 -999 -999 -999 -999
2007-12-18 08:42:48 51°19.483 2°55.44 -999 -999 -999 -999
2007-12-18 08:42:54 51°19.49 2°55.473 -999 -999 -999 -999
2007-12-18 08:42:59 51°19.496 2°55.5 -999 -999 -999 -999
2007-12-18 08:43:04 51°19.501 2°55.528 -999 -999 -999 -999
2007-12-18 08:43:08 51°19.507 2°55.55 -999 -999 -999 -999
2007-12-18 08:43:14 51°19.513 2°55.582 -999 -999 -999 -999
2007-12-18 08:43:19 51°19.52 2°55.609 -999 -999 -999 -999
2007-12-18 08:43:24 51°19.526 2°55.637 -999 -999 -999 -999
2007-12-18 08:43:28 51°19.53 2°55.659 -999 -999 -999 -999
2007-12-18 08:43:34 51°19.538 2°55.692 -999 -999 -999 -999
2007-12-18 08:43:39 51°19.543 2°55.719 -999 -999 -999 -999
2007-12-18 08:43:44 51°19.55 2°55.746 -999 -999 -999 -999
2007-12-18 08:43:49 51°19.555 2°55.774 -999 -999 -999 -999
2007-12-18 08:43:54 51°19.561 2°55.802 -999 -999 -999 -999
2007-12-18 08:43:59 51°19.566 2°55.829 -999 -999 -999 -999
2007-12-18 08:44:04 51°19.571 2°55.857 -999 -999 -999 -999
2007-12-18 08:44:09 51°19.577 2°55.884 -999 -999 -999 -999
2007-12-18 08:44:14 51°19.582 2°55.912 -999 -999 -999 -999
2007-12-18 08:44:19 51°19.588 2°55.94 -999 -999 -999 -999
2007-12-18 08:44:24 51°19.593 2°55.967 -999 -999 -999 -999
2007-12-18 08:44:28 51°19.598 2°55.989 -999 -999 -999 -999
2007-12-18 08:44:34 51°19.604 2°56.022 -999 -999 -999 -999
2007-12-18 08:44:39 51°19.609 2°56.05 -999 -999 -999 -999
2007-12-18 08:44:44 51°19.615 2°56.077 -999 -999 -999 -999
2007-12-18 08:44:48 51°19.619 2°56.1 -999 -999 -999 -999
2007-12-18 08:44:54 51°19.626 2°56.133 -999 -999 -999 -999
2007-12-18 08:44:59 51°19.631 2°56.16 -999 -999 -999 -999
2007-12-18 08:45:04 51°19.637 2°56.187 -999 -999 -999 -999
2007-12-18 08:45:08 51°19.641 2°56.21 -999 -999 -999 -999
2007-12-18 08:45:14 51°19.648 2°56.243 -999 -999 -999 -999
2007-12-18 08:45:19 51°19.653 2°56.27 -999 -999 -999 -999
2007-12-18 08:45:24 51°19.659 2°56.298 -999 -999 -999 -999
2007-12-18 08:45:28 51°19.663 2°56.32 -999 -999 -999 -999
2007-12-18 08:45:34 51°19.67 2°56.353 -999 -999 -999 -999
2007-12-18 08:45:39 51°19.675 2°56.381 -999 -999 -999 -999
2007-12-18 08:45:44 51°19.681 2°56.408 -999 -999 -999 -999
2007-12-18 08:45:48 51°19.685 2°56.43 -999 -999 -999 -999
2007-12-18 08:45:54 51°19.692 2°56.463 -999 -999 -999 -999
2007-12-18 08:45:59 51°19.698 2°56.49 -999 -999 -999 -999
2007-12-18 08:46:04 51°19.704 2°56.518 -999 -999 -999 -999
2007-12-18 08:46:08 51°19.708 2°56.54 -999 -999 -999 -999
2007-12-18 08:46:14 51°19.715 2°56.573 -999 -999 -999 -999
2007-12-18 08:46:19 51°19.721 2°56.601 -999 -999 -999 -999
2007-12-18 08:46:24 51°19.727 2°56.628 -999 -999 -999 -999
2007-12-18 08:46:28 51°19.731 2°56.65 -999 -999 -999 -999
2007-12-18 08:46:34 51°19.737 2°56.683 -999 -999 -999 -999
2007-12-18 08:46:39 51°19.742 2°56.711 -999 -999 -999 -999
2007-12-18 08:46:44 51°19.748 2°56.739 -999 -999 -999 -999
2007-12-18 08:46:49 51°19.753 2°56.766 -999 -999 -999 -999
2007-12-18 08:46:54 51°19.758 2°56.794 -999 -999 -999 -999
2007-12-18 08:46:59 51°19.764 2°56.822 -999 -999 -999 -999
2007-12-18 08:47:04 51°19.769 2°56.849 -999 -999 -999 -999
2007-12-18 08:47:09 51°19.774 2°56.877 -999 -999 -999 -999
2007-12-18 08:47:14 51°19.779 2°56.904 -999 -999 -999 -999
2007-12-18 08:47:19 51°19.784 2°56.932 -999 -999 -999 -999
2007-12-18 08:47:24 51°19.79 2°56.96 -999 -999 -999 -999
2007-12-18 08:47:28 51°19.794 2°56.982 -999 -999 -999 -999
2007-12-18 08:47:34 51°19.801 2°57.015 -999 -999 -999 -999
2007-12-18 08:47:39 51°19.806 2°57.042 -999 -999 -999 -999
2007-12-18 08:47:44 51°19.811 2°57.07 -999 -999 -999 -999
2007-12-18 08:47:48 51°19.815 2°57.092 -999 -999 -999 -999
2007-12-18 08:47:54 51°19.821 2°57.125 -999 -999 -999 -999
2007-12-18 08:47:59 51°19.827 2°57.152 -999 -999 -999 -999
2007-12-18 08:48:04 51°19.832 2°57.18 -999 -999 -999 -999
2007-12-18 08:48:08 51°19.836 2°57.202 -999 -999 -999 -999
2007-12-18 08:48:14 51°19.842 2°57.235 -999 -999 -999 -999
2007-12-18 08:48:19 51°19.848 2°57.263 -999 -999 -999 -999
2007-12-18 08:48:24 51°19.853 2°57.29 -999 -999 -999 -999
2007-12-18 08:48:28 51°19.857 2°57.312 -999 -999 -999 -999
2007-12-18 08:48:34 51°19.864 2°57.345 -999 -999 -999 -999
2007-12-18 08:48:39 51°19.869 2°57.373 -999 -999 -999 -999
2007-12-18 08:48:44 51°19.874 2°57.4 -999 -999 -999 -999
2007-12-18 08:48:49 51°19.879 2°57.428 -999 -999 -999 -999
2007-12-18 08:48:54 51°19.885 2°57.455 -999 -999 -999 -999
2007-12-18 08:48:59 51°19.89 2°57.483 -999 -999 -999 -999
2007-12-18 08:49:04 51°19.896 2°57.51 -999 -999 -999 -999
2007-12-18 08:49:09 51°19.901 2°57.537 -999 -999 -999 -999
2007-12-18 08:49:14 51°19.907 2°57.565 -999 -999 -999 -999
2007-12-18 08:49:19 51°19.912 2°57.592 -999 -999 -999 -999
2007-12-18 08:49:24 51°19.917 2°57.62 -999 -999 -999 -999
2007-12-18 08:49:28 51°19.922 2°57.642 -999 -999 -999 -999
2007-12-18 08:49:34 51°19.928 2°57.674 -999 -999 -999 -999
2007-12-18 08:49:39 51°19.933 2°57.701 -999 -999 -999 -999
2007-12-18 08:49:44 51°19.939 2°57.729 -999 -999 -999 -999
2007-12-18 08:49:48 51°19.942 2°57.751 -999 -999 -999 -999
2007-12-18 08:49:54 51°19.948 2°57.784 -999 -999 -999 -999
2007-12-18 08:49:59 51°19.953 2°57.812 -999 -999 -999 -999
2007-12-18 08:50:04 51°19.958 2°57.84 -999 -999 -999 -999
2007-12-18 08:50:08 51°19.961 2°57.862 -999 -999 -999 -999
2007-12-18 08:50:14 51°19.967 2°57.895 -999 -999 -999 -999
2007-12-18 08:50:19 51°19.972 2°57.922 -999 -999 -999 -999
2007-12-18 08:50:24 51°19.977 2°57.949 -999 -999 -999 -999
2007-12-18 08:50:28 51°19.981 2°57.971 -999 -999 -999 -999
2007-12-18 08:50:34 51°19.988 2°58.004 -999 -999 -999 -999
2007-12-18 08:50:39 51°19.992 2°58.032 -999 -999 -999 -999
2007-12-18 08:50:44 51°19.997 2°58.059 -999 -999 -999 -999
2007-12-18 08:50:48 51°20.001 2°58.081 -999 -999 -999 -999
2007-12-18 08:50:54 51°20.007 2°58.114 -999 -999 -999 -999
2007-12-18 08:50:59 51°20.012 2°58.141 -999 -999 -999 -999
2007-12-18 08:51:04 51°20.016 2°58.169 -999 -999 -999 -999
2007-12-18 08:51:08 51°20.02 2°58.191 -999 -999 -999 -999
2007-12-18 08:51:14 51°20.027 2°58.223 -999 -999 -999 -999
2007-12-18 08:51:19 51°20.031 2°58.251 -999 -999 -999 -999
2007-12-18 08:51:24 51°20.037 2°58.278 -999 -999 -999 -999
2007-12-18 08:51:28 51°20.04 2°58.3 -999 -999 -999 -999
2007-12-18 08:51:34 51°20.047 2°58.333 -999 -999 -999 -999
2007-12-18 08:51:39 51°20.052 2°58.36 -999 -999 -999 -999
2007-12-18 08:51:44 51°20.057 2°58.387 -999 -999 -999 -999
2007-12-18 08:51:49 51°20.062 2°58.414 -999 -999 -999 -999
2007-12-18 08:51:54 51°20.068 2°58.441 -999 -999 -999 -999
2007-12-18 08:51:59 51°20.073 2°58.469 -999 -999 -999 -999
2007-12-18 08:52:04 51°20.078 2°58.496 -999 -999 -999 -999
2007-12-18 08:52:09 51°20.083 2°58.523 -999 -999 -999 -999
2007-12-18 08:52:14 51°20.088 2°58.551 -999 -999 -999 -999
2007-12-18 08:52:19 51°20.093 2°58.578 -999 -999 -999 -999
2007-12-18 08:52:24 51°20.097 2°58.605 -999 -999 -999 -999
2007-12-18 08:52:28 51°20.101 2°58.627 -999 -999 -999 -999
2007-12-18 08:52:34 51°20.107 2°58.66 -999 -999 -999 -999
2007-12-18 08:52:39 51°20.112 2°58.687 -999 -999 -999 -999
2007-12-18 08:52:44 51°20.117 2°58.714 -999 -999 -999 -999
2007-12-18 08:52:48 51°20.121 2°58.736 -999 -999 -999 -999
2007-12-18 08:52:54 51°20.127 2°58.769 -999 -999 -999 -999
2007-12-18 08:52:59 51°20.131 2°58.796 -999 -999 -999 -999
2007-12-18 08:53:04 51°20.135 2°58.823 -999 -999 -999 -999
2007-12-18 08:53:08 51°20.139 2°58.845 -999 -999 -999 -999
2007-12-18 08:53:14 51°20.144 2°58.878 -999 -999 -999 -999
2007-12-18 08:53:19 51°20.15 2°58.905 -999 -999 -999 -999
2007-12-18 08:53:24 51°20.154 2°58.932 -999 -999 -999 -999
2007-12-18 08:53:28 51°20.158 2°58.953 -999 -999 -999 -999
2007-12-18 08:53:34 51°20.164 2°58.985 -999 -999 -999 -999
2007-12-18 08:53:39 51°20.17 2°59.012 -999 -999 -999 -999
2007-12-18 08:53:44 51°20.175 2°59.039 -999 -999 -999 -999
2007-12-18 08:53:49 51°20.18 2°59.066 -999 -999 -999 -999
2007-12-18 08:53:54 51°20.185 2°59.093 -999 -999 -999 -999
2007-12-18 08:53:59 51°20.19 2°59.12 -999 -999 -999 -999
2007-12-18 08:54:04 51°20.196 2°59.147 -999 -999 -999 -999
2007-12-18 08:54:09 51°20.202 2°59.174 -999 -999 -999 -999
2007-12-18 08:54:14 51°20.207 2°59.2 -999 -999 -999 -999
2007-12-18 08:54:19 51°20.213 2°59.227 -999 -999 -999 -999
2007-12-18 08:54:24 51°20.22 2°59.253 -999 -999 -999 -999
2007-12-18 08:54:29 51°20.225 2°59.279 -999 -999 -999 -999
2007-12-18 08:54:34 51°20.231 2°59.306 -999 -999 -999 -999
2007-12-18 08:54:39 51°20.238 2°59.332 -999 -999 -999 -999
2007-12-18 08:54:44 51°20.243 2°59.358 -999 -999 -999 -999
2007-12-18 08:54:48 51°20.248 2°59.38 -999 -999 -999 -999
2007-12-18 08:54:54 51°20.256 2°59.411 -999 -999 -999 -999
2007-12-18 08:54:59 51°20.261 2°59.438 -999 -999 -999 -999
2007-12-18 08:55:04 51°20.267 2°59.465 -999 -999 -999 -999
2007-12-18 08:55:09 51°20.272 2°59.491 -999 -999 -999 -999
2007-12-18 08:55:14 51°20.278 2°59.518 -999 -999 -999 -999
2007-12-18 08:55:19 51°20.283 2°59.544 -999 -999 -999 -999
2007-12-18 08:55:24 51°20.288 2°59.571 -999 -999 -999 -999
2007-12-18 08:55:29 51°20.294 2°59.598 -999 -999 -999 -999
2007-12-18 08:55:34 51°20.299 2°59.624 -999 -999 -999 -999
2007-12-18 08:55:39 51°20.304 2°59.651 -999 -999 -999 -999
2007-12-18 08:55:44 51°20.31 2°59.677 -999 -999 -999 -999
2007-12-18 08:55:48 51°20.315 2°59.698 -999 -999 -999 -999
2007-12-18 08:55:54 51°20.322 2°59.73 -999 -999 -999 -999
2007-12-18 08:55:59 51°20.328 2°59.757 -999 -999 -999 -999
2007-12-18 08:56:04 51°20.334 2°59.783 -999 -999 -999 -999
2007-12-18 08:56:09 51°20.339 2°59.809 -999 -999 -999 -999
2007-12-18 08:56:14 51°20.346 2°59.835 -999 -999 -999 -999
2007-12-18 08:56:19 51°20.351 2°59.862 -999 -999 -999 -999
2007-12-18 08:56:24 51°20.357 2°59.888 -999 -999 -999 -999
2007-12-18 08:56:29 51°20.363 2°59.914 -999 -999 -999 -999
2007-12-18 08:56:34 51°20.369 2°59.941 -999 -999 -999 -999
2007-12-18 08:56:39 51°20.375 2°59.967 -999 -999 -999 -999
2007-12-18 08:56:44 51°20.38 2°59.993 -999 -999 -999 -999
2007-12-18 08:56:49 51°20.386 3°0.019 -999 -999 -999 -999
2007-12-18 08:56:54 51°20.392 3°0.046 -999 -999 -999 -999
2007-12-18 08:56:59 51°20.397 3°0.072 -999 -999 -999 -999
2007-12-18 08:57:04 51°20.403 3°0.099 -999 -999 -999 -999
2007-12-18 08:57:09 51°20.408 3°0.125 -999 -999 -999 -999
2007-12-18 08:57:14 51°20.412 3°0.152 -999 -999 -999 -999
2007-12-18 08:57:19 51°20.418 3°0.179 -999 -999 -999 -999
2007-12-18 08:57:24 51°20.423 3°0.205 -999 -999 -999 -999
2007-12-18 08:57:29 51°20.429 3°0.231 -999 -999 -999 -999
2007-12-18 08:57:34 51°20.434 3°0.258 -999 -999 -999 -999
2007-12-18 08:57:39 51°20.44 3°0.283 -999 -999 -999 -999
2007-12-18 08:57:44 51°20.446 3°0.309 -999 -999 -999 -999
2007-12-18 08:57:49 51°20.452 3°0.335 -999 -999 -999 -999
2007-12-18 08:57:54 51°20.458 3°0.362 -999 -999 -999 -999
2007-12-18 08:57:59 51°20.463 3°0.388 -999 -999 -999 -999
2007-12-18 08:58:04 51°20.469 3°0.414 -999 -999 -999 -999
2007-12-18 08:58:08 51°20.474 3°0.435 -999 -999 -999 -999
2007-12-18 08:58:14 51°20.481 3°0.466 -999 -999 -999 -999
2007-12-18 08:58:19 51°20.487 3°0.492 -999 -999 -999 -999
2007-12-18 08:58:24 51°20.493 3°0.519 -999 -999 -999 -999
2007-12-18 08:58:29 51°20.498 3°0.545 -999 -999 -999 -999
2007-12-18 08:58:34 51°20.503 3°0.572 -999 -999 -999 -999
2007-12-18 08:58:39 51°20.508 3°0.598 -999 -999 -999 -999
2007-12-18 08:58:44 51°20.513 3°0.625 -999 -999 -999 -999
2007-12-18 08:58:49 51°20.518 3°0.652 -999 -999 -999 -999
2007-12-18 08:58:54 51°20.523 3°0.678 -999 -999 -999 -999
2007-12-18 08:58:59 51°20.529 3°0.705 -999 -999 -999 -999